Powrót do katalogu

CONTECSAT-1

AktywnyNaukaSSO
NORAD 59117·PAYLOAD·🇰🇷 South Korea

Wystrzelony Mar 4, 2024 z Vandenberg Space Force Base

Loading…

Następne Przeloty (najbliższe 24 godziny)

TLE

ŚwieżeSource: Space-Track

Epoka: Sep 14, 2026, 20:40 UTC

1 59117U 24043V   26257.86112824  .00004275  00000-0  12252-3 0  9993
2 59117  97.5779  41.5420 0004333 265.6148  94.4601 15.36476372141026

Śledź CONTECSAT-1 w czasie rzeczywistym z AllMySat

Download on the App Store